Location: Buckland
(65.9785°N, 161.1281°W)
Time: 20:49:03
(UTC+00:00)

SPROUT - Pass Details

Date: 18 January 2021
Orbit: 597 x 610 km, 97.9° (Epoch: 07 March)

Event Time Altitude Azimuth Distance (km) Brightness Sun altitude
Exits shadow 03:50:36 - 17° (NNE) 2,263 ? -12.4°
Reaches altitude 10° 03:51:46 10° 5° (N) 1,977 ? -12.5°
Maximum altitude 03:53:54 14° 335° (NNW) 1,745 ? -12.7°
Drops below altitude 10° 03:56:02 10° 306° (NW) 1,978 ? -12.9°
Sets 03:59:11 0° 280° (W) 2,882 ? -13.2°
